Location: Newark
(59.4564°N, 26.6917°E)
Time: 02:54:07
(UTC+00:00)

SR - Pass Details

Date: 28 November 2019
Orbit: 573 x 882 km, 66.7° (Epoch: 05 December)

Event Time Altitude Azimuth Distance (km) Brightness Sun altitude
Rises 18:21:13 0° 310° (NW) 3,479 ? -35.8°
Reaches altitude 10° 18:23:43 10° 309° (NW) 2,549 ? -36.1°
Enters shadow 18:27:20 38° 300° (WNW) 1,322 ? -36.5°
Maximum altitude 18:29:40 72° 227° (SW) 927 - -36.8°
Drops below altitude 10° 18:35:28 10° 144° (SE) 2,493 - -37.5°
Sets 18:37:54 0° 142° (SE) 3,397 - -37.8°
